Aérodrome :
LOGIN :

S'inscrire | Disclaimer

   EN    FR    IT 

 










Légende :    VFR   VFR Marginal   IFR   IFR Intensif   IFR Très Intensif
Visi : 
Plafond : 
>= 8 km
>= 3000ft
5 à 8 km
1000 à 3000 ft
1500m à 5 km
500 à 1000 ft
800 à 1500m
200 à 500 ft
< 800m
< 200 ft
Symboles :   Orages  Brouillard  Fortes neiges  Fortes précipitations  Vent > 20 kt
SIGMETs :   Divers  Orages  Givrage  Turbulence  Onde Orograph.  Cendres Volcan.







- Altitude de l'aérodrome : 1966 ft
- Code IATA : SGE


EDGS - Siegerland

DERNIER METAR :
  • 211720Z 12004KT CAVOK 11/09 Q1020

METARs EXPIRÉS :
  • 211650Z 13005KT CAVOK 11/09 Q1020
  • 211620Z 14006KT 9999 FEW025 13/09 Q1020
  • 211550Z 14005KT 9999 FEW025 13/09 Q1020
  • 211520Z 17006KT 130V210 9999 FEW025 14/08 Q1020
  • 211450Z 18006KT 9999 FEW026 14/07 Q1020

TAF TAF EDGS
Valide du 21 à 18h jusqu'au 22 à 03h UTC


211700Z 2118/2203 12005KT 9999 FEW025
Pas de NOTAMs connus pour ce terrain.



MET'MAP, la Météo Aéronautique d'un coup d'oeil ! - Copyright ORBIFLY Décembre 2007 - Disclaimer

ORBIFLY MET'MAP TEAM :

Programmation & Développement : Alexandra Zaïnal
Conception & Développement : Baudouin d'Aumeries
Co-Programmation & Développement : Marc-Olivier Méhu
Soutien technique & logistique : Manuel Goepfert

Contact : metmap@orbifly.com




SOURCES & CREDITS :

   NOAA